APRIZESAT 5

Satellite information

Favourite Embed

Satellite Type and Status

PAYLOADIN ORBIT

Key statistics

Satellite APRIZESAT 5 at a glance.

Uptime

5181

Days in orbit

Revolutions

≈ 14.8

Per day

Orbit

SSO

Sun Synchronous Orbit

Inclination

98.2

Latest

Satellite identification and parameters

Extended collection of information and parameters for APRIZESAT 5.

Object identification

Identified? True

Debris? False

Object name: APRIZESAT 5

International designator: 2011-044E

Object number (NORAD): 37792

Object ID (CCSDS): 37792

Country: UNITED STATES OF AMERICA (US)

Current information (Y/N): Y

RCS size: MEDIUM

Orbital parameters

Period: 97.275 minutes

Inclination: 98.2299 deg

SMA: 7006.41 km

Apoapsis: 666.202 km

Periapsis: 590.348 km

RAAN: 216.9697 deg

Eccentricy: 0.00541318

Argument of periapsis: 49.4362 deg

Mean anomaly: 311.1543 deg

Mean motion: 14.80333191 rev/day

Mean motion (dot): 0.00002208 rev/day2

B* drag term: 0.00028995551 1/REarth

Two-line elements (TLE)

Creation date: Oct. 23, 2025, 2:46 a.m.

Reference frame: TEME

Reference center: EARTH

Epoch: Oct. 22, 2025, 8:25 a.m. UTC

TLE line 0: 0 APRIZESAT 5

TLE line 1: 1 37792U 11044E 25295.35128306 .00002208 00000-0 28996-3 0 9998

TLE line 2: 2 37792 98.2299 216.9697 0054132 49.4362 311.1543 14.80333191763593

Live tracking on map

Real-time ground track for satellite APRIZESAT 5.

In-orbit conjunctions

There are no conjunctions computed for APRIZESAT 5, at the moment. Check back to stay up to date, as we update our databases every day.

Go to all conjunctions

Associated space launch

APRIZESAT 5 was lifted into orbit during the mission ‘Dnepr 1 | Sich-2’, on board a Dnepr space rocket.

The launch took place on Aug. 17, 2011, 7:12 a.m. from 370/13.

For more information about the launch, click the button.

Launch to space Dnepr 1 | Sich-2
Dnepr 1 | Sich-2

Agency: N/A

Status: Launch Successful

Launch date: Aug. 17, 2011, 7:12 a.m. UTC

Rocket: Dnepr

Launch pad: 370/13

Location: Dombarovskiy, Russian Federation

...

Latest news about this satellite

There are no fresh news available about this satellite. Check back as we update our databases every day.


Newsletter sign-up

Weekly statistics, charts and insights to help you stay on top of the space industry.